Regional Weather Roundup
Issued by NWS

Home | Current Version | Previous Version | Graphics & Text | Print | Product List | Glossary On
Versions: 1 2 3 4 5 6 7 8 9 10 11 12 13 14 15 16 17 18 19 20 21 22 23 24 25 26 27 28 29 30 31 32 33 34 35 36 37 38 39 40 41 42 43 44 45 46 47 48 49 50
000
ASUS43 KLSX 210307
RWRMO

WEATHER SUMMARY FOR MISSOURI
NATIONAL WEATHER SERVICE SPRINGFIELD MO
1000 PM CDT WED SEP 20 2017

NOTE: "FAIR" INDICATES FEW OR NO CLOUDS BELOW 12,000 FEET WITH NO
       SIGNIFICANT WEATHER AND/OR OBSTRUCTIONS TO VISIBILITY.
       CURRENT SKY AND/OR WEATHER CONDITIONS ARE NOT AVAILABLE FOR
       CHILLICOTHE AND FARMINGTON.

MOZ001>031-035>038-043-044-053-054-210400-
...NORTHERN AND WESTERN MISSOURI...

CITY           SKY/WX    TMP DP  RH WIND       PRES   REMARKS
KANSAS CTY INT PTCLDY    79  74  84 SE6       29.84R
KANSAS C DTWN  CLEAR     85  75  72 S6        29.82R HX  93
LEE`S SUMMIT   CLEAR     82  75  79 S10       29.86R
ST JOSEPH      PTCLDY    73  72  96 N5        29.83R
CHILLICOTHE      N/A     76  76 100 CALM      29.85R
KIRKSVILLE     CLOUDY    76  71  85 CALM      29.88R

$$
MOZ066>068-077>081-088>096-101>105-210400-
...SOUTHWEST MISSOURI...

CITY           SKY/WX    TMP DP  RH WIND       PRES   REMARKS
SPRINGFIELD    CLEAR     79  69  71 S12       29.92R
JOPLIN         CLEAR     80  71  74 SE8       29.88R
BRANSON        CLEAR     81  68  65 S10       29.95S

$$
MOZ032>034-039>042-045>050-055>058-069>072-210400-
...CENTRAL MISSOURI...

CITY           SKY/WX    TMP DP  RH WIND       PRES   REMARKS
COLUMBIA       CLEAR     79  70  74 S9        29.90R
JEFFERSON CITY CLEAR     82  69  64 SE6       29.88R
ROLLA          CLEAR     81  70  69 S14       29.94R
SEDALIA        CLEAR     79  74  84 S7        29.90R
WHITEMAN AFB   PTCLDY    77  77  99 SE6       29.87R
WARRENSBURG    CLEAR     77  72  83 SE5       29.86R
OSAGE BEACH    CLEAR     80  71  74 SE5       29.91R

$$
MOZ051-052-059>065-210400-
...EAST CENTRAL MISSOURI...

CITY           SKY/WX    TMP DP  RH WIND       PRES   REMARKS
ST LOUIS INTL  CLEAR     85  70  60 S10       29.91R
SPIRIT OF STL  CLEAR     83  71  67 VRB7      29.90R
ST CHARLES     CLEAR     79  69  71 SE6       29.90R

$$
MOZ072>076-082>087-097>100-106>115-210400-
...SOUTH CENTRAL AND SOUTHEAST MISSOURI...

CITY           SKY/WX    TMP DP  RH WIND       PRES   REMARKS
CAPE GIRARDEAU CLEAR     77  70  79 S7        29.95R
FARMINGTON     CLEAR     77  70  79 S7        29.97R
POPLAR BLUFF   CLEAR     74  70  87 CALM      29.95R
WEST PLAINS    CLEAR     79  70  74 S8        29.98R

$$


USA.gov is the U.S. government's official web portal to all federal, state and local government web resources and services.